Weather in Pajala

Sweden     67°12′38″N   23°22′07″E
temp.,
°C
wind,
m/s
gust,
m/s
humid.,
%
clouds,
%
prec.,
mm/h
press.,
hPa
HPBL,
m
16 may, sun
sun1623:00+4ne3799100 0.3 1011232
02:00+3ne26100100 0.8 1010210
05:00+3ne259994 0.5 1010179
08:00+6ene249695 0.5 1009335
11:00+7e239573 0.2 1009304
14:00+11e2486100 0.3 1008588
17:00+10ne1295100 0.0 100849
20:00+8n1198100 0.0 100713
17 may, mon
mon1723:00+7w2499100 0.0 1008107
02:00+6sw139984 0.0 1009105
05:00+7ssw159485 0.0 1009151
08:00+10sw258344 0.0 1010417
11:00+14ssw356519 0.0 10101159
14:00+16ssw365385 0.1 10091791
17:00+17s2547100 0.0 10081784
20:00+14e2368100 0.0 100743
18 may, tue
tue1823:00+11e41281100 0.1 1005312
02:00+12se51481100 0.2 1004775
05:00+11se51296100 6.6 1001736
08:00+10s51192100 7.1 1002863
11:00+10s5108295 0.0 1004996
14:00+16ssw695010 0.0 10041799
17:00+17sw474680 0.0 10042031
20:00+13w246593 0.0 1005112
19 may, wed
wed1923:00+10wsw1180100 0.0 100610
02:00+8nnw2284100 0.0 100528
05:00+9n3883100 0.0 1004278
08:00+11n4758100 0.0 1003494
11:00+13n5652100 0.0 1002881
14:00+12nne4764100 0.2 1001826
17:00+9n31090100 1.4 1001628
20:00+9n51192100 4.2 1001812
20 may, thu
thu2023:00+8n5129199 2.3 1002732
02:00+7n51290100 2.3 1003809
05:00+6n5118996 0.0 1004813
08:00+6n41187100 0.0 1005811
11:00+7nne51085100 0.0 1005794
14:00+7nne41085100 0.0 1006799
17:00+6nne41087100 0.1 1006690
20:00+6nne41091100 0.4 1005650